STARLINK-3268, 50190

Orbit data source: Space-Track

STARLINK-3268, 50190 is a payload satellite owned by SpaceX/Seattle (US) in LEO that was launched on Sat, 18 Dec 2021 UTC via an FALCON 9 launch vehicle from the Air Force Western Test Range (AFWTR). Payload-class satellites include a variety of spacecraft equipped with specific instruments for various scientific and technological missions. These include communications satellites like Starlink; space stations such as the ISS; scientific satellites like the Hubble; Earth observation satellites from companies like Planet Labs, Umbra, and HawkEye 360; GPS; miniature CubeSats for education and research; and military/defense satellites.

Loading next visibility...
Identifier
50190, 2021-125AL
Orbit
LEO
Country
Flag of USUS
Related business
Manufacturer
SpaceX/Seattle
Mission
Operational Commercial Communications
Bus & Motor
STARLINK, Unknown motor
Mass
290 kg wet, ~270 kg dry
Launch date (UTC)
2021-12-18 (5 years ago)
Launch vehicle
FALCON 9
Launch site
Air Force Western Test Range (AFWTR)
Object type
Payload
Rocket body
Debris
Shape & HBR
Box + 1 Pan, 10.1 m
Radar Cross Section
13.562 m², Large (>1 m²)

Expand to show TLE details & history
Last TLE update: 7 hours ago

TLE from 7 hours ago
0 STARLINK-3268
1 50190U 21125AL  26169.83335647  .00119759  00000-0  54252-2 0  9991
2 50190  53.1604 144.6988 0000784  46.6114 348.0127 15.19943530  5827
Epoch: 2026-06-18T20:00Z
TLE epoch observation values (Epoch: 2026-06-18T20:00:01.999Z)
Latitude
27.12562°
Longitude
-39.94275°
Altitude
506.746 km
Speed
7.615 km/s
True Right ascension
11h 08m 32s
True Declination
26° 58' 52"
Sunlit
Object was in daylight at epoch
Visualization orbit readout
Latitude
Unknown
Longitude
Unknown
Altitude
Unknown
Speed
Unknown
Apparent Right ascension
Unknown
Apparent Declination
Unknown
Sunlit
N/A
Visualization observer readout
Local Sidereal Time
14:01:45
Azimuth
Unknown
Elevation
Unknown
Doppler factor
Unknown
Orbital elements
Apogee altitude
506.806 km
Perigee altitude
505.727 km
Semi-major axis
6,884.403 km
Eccentricity
0.00008
Inclination
53.1604°
RAAN
144.6988°
Arg. of periapsis
46.6114°
True anomaly
348.01083°
Mean anomaly
348.0127°
Eccentric anomaly
348.01177°
Mean motion
3.79965 °/min
Orbital period
94.75 mins
BSTAR
0.0054252
Loading maneuver chart data...
Computing Atmospheric mass density...

Documentation

Showing up to 5 results
|